Theta_e
325 327 326 325 324 324 323 322 320 317 315 313 311 311 313 314 315 314 314 314 315 315 316 318 319 320 318 311 310 316 324 318 315 315 312 311 309 307 304 304 305 304 304 304 303 303 304
324 326 325 324 324 323 324 322 319 316 314 312 311 311 312 313 314 314 314 314 314 314 316 318 319 319 314 306 315 312 310 312 313 312 312 313 310 309 306 305 305 305 303 302 303 302 302
324 325 324 323 322 322 322 320 319 316 314 313 311 310 311 312 313 313 313 313 313 314 316 318 319 314 312 309 315 312 310 311 312 311 310 312 312 310 308 305 306 305 302 301 302 302 300
321 324 324 322 321 321 320 319 318 316 314 312 311 310 310 311 311 311 312 312 313 315 317 317 318 315 309 315 314 311 311 312 312 313 312 312 313 310 308 308 304 302 300 296 300 302 301
321 323 323 322 321 320 319 318 317 315 314 312 310 310 310 310 311 311 311 312 313 316 317 316 316 312 306 314 309 310 310 308 309 311 311 312 312 306 306 302 300 299 294 294 295 300 300
321 320 323 321 320 320 319 317 315 314 313 310 309 309 310 310 311 310 311 311 314 312 309 309 308 308 307 304 307 308 310 309 308 308 307 308 305 301 300 301 293 294 294 294 294 297 298
320 320 323 321 320 320 319 318 315 313 312 309 309 309 309 310 311 311 308 309 309 310 306 304 305 303 304 307 307 308 307 308 309 305 301 302 300 296 297 298 297 296 294 293 296 299 296
318 317 322 321 320 320 320 317 314 313 311 309 308 308 310 310 311 311 310 304 305 308 301 305 305 305 306 305 303 305 308 305 303 298 299 299 295 297 297 297 296 295 293 294 296 298 296
316 316 321 321 320 320 319 317 314 312 310 308 307 308 309 310 310 308 309 308 310 309 302 303 304 302 302 305 301 301 304 304 300 298 297 297 297 298 296 294 294 292 291 291 293 295 297
314 315 317 320 320 319 318 316 314 311 309 307 307 308 309 309 307 306 304 307 313 311 296 297 299 302 303 304 300 302 300 302 299 296 297 297 299 296 294 292 293 290 292 292 294 293 289
314 313 314 319 318 317 315 314 313 310 308 306 307 308 309 309 307 304 305 309 315 309 288 298 298 305 302 300 300 300 299 300 295 295 297 294 296 296 293 292 292 291 292 291 294 292 289
314 313 315 317 316 315 314 313 311 309 307 306 307 310 308 307 305 305 307 313 308 296 286 293 298 297 298 297 296 297 297 298 296 295 296 295 298 295 295 293 292 292 291 290 290 289 285
313 313 314 315 315 314 313 311 310 308 306 306 307 310 308 307 302 306 310 305 296 290 297 291 293 296 294 293 294 294 291 290 290 289 289 293 292 294 294 291 292 292 289 285 284 284 284
313 313 313 314 314 313 312 310 309 307 307 306 307 307 307 306 306 309 306 298 291 291 292 295 294 294 292 293 292 292 291 289 291 289 287 287 287 291 294 291 289 289 288 285 279 280 282
312 313 313 314 313 312 311 309 308 307 306 306 307 306 305 307 307 306 299 291 291 293 294 292 293 291 290 292 292 291 289 288 289 290 287 286 286 291 293 293 292 288 287 289 285 283 282
312 312 313 313 312 311 309 308 308 307 306 307 303 303 304 307 306 301 294 290 294 295 294 294 290 291 289 290 290 290 289 290 289 291 291 288 284 288 292 293 292 291 291 286 286 279 278
312 312 313 312 311 309 308 308 308 307 307 307 301 296 305 305 303 295 289 291 294 295 297 294 291 290 291 289 289 289 289 290 291 291 292 290 287 285 288 288 287 289 288 287 287 285 281
311 312 311 311 309 308 307 307 307 307 307 303 300 295 305 302 291 290 289 294 296 294 297 295 295 293 292 291 289 289 289 290 292 292 288 289 287 283 284 289 290 289 287 288 285 282 284
311 311 310 310 309 307 307 307 307 307 307 302 296 295 301 300 288 287 293 295 296 294 295 294 293 295 294 291 289 289 289 292 293 292 290 290 284 281 282 287 290 288 288 287 286 285 282
310 310 309 308 308 307 306 307 306 306 306 301 296 292 291 294 293 292 292 293 292 295 294 294 292 294 292 290 292 289 288 292 293 292 294 292 284 284 281 283 287 285 286 287 286 282 282
309 308 307 307 307 306 306 306 306 306 306 301 295 293 292 286 289 292 294 293 291 291 294 294 292 293 292 288 289 288 290 290 291 294 291 289 284 284 284 284 286 286 285 286 284 285 281
307 307 306 306 306 306 306 306 306 306 305 298 293 291 290 288 292 293 292 292 291 291 293 292 292 291 292 290 291 289 290 290 290 291 290 289 284 285 283 284 284 283 285 285 285 285 285
305 304 304 305 306 306 306 305 305 305 303 298 296 298 295 289 289 290 290 292 292 294 294 294 294 292 291 292 294 293 294 294 293 291 288 288 286 283 280 283 282 280 282 283 284 286 286
303 303 304 305 304 305 304 304 304 303 302 299 297 297 294 286 287 289 291 294 292 294 292 292 294 293 292 294 294 295 293 291 292 289 291 287 286 283 281 281 276 283 287 288 286 287 288
302 302 303 304 305 304 303 303 303 304 303 299 298 298 295 287 289 289 291 291 291 291 290 291 291 292 295 293 289 286 285 287 287 288 289 289 286 281 279 278 281 283 286 287 286 286 289
302 302 303 303 304 304 304 303 303 304 303 298 296 298 297 292 289 292 290 292 288 288 288 289 293 295 294 287 287 282 282 283 282 284 288 287 287 285 278 276 276 283 289 291 291 283 288
301 302 302 303 303 304 304 304 304 304 303 299 295 297 296 288 290 292 290 289 291 289 288 289 290 293 292 287 285 283 283 284 282 282 281 284 284 282 279 279 281 286 290 291 281 284 289
301 301 302 303 303 303 303 303 304 303 303 300 295 296 296 288 289 292 292 291 290 290 288 289 290 290 288 287 287 284 283 285 284 286 284 283 281 281 281 278 277 290 289 285 289 288 290
301 301 302 303 303 303 303 303 302 303 302 301 295 297 297 292 290 294 294 294 293 294 291 289 291 288 291 287 285 284 284 284 284 281 287 283 286 284 285 284 288 291 289 289 290 289 288
Wind_Speed
14 20 18 17 15 13 12 10 10 8 6 7 9 9 11 13 12 13 13 13 14 14 14 14 13 12 3 7 2 5 10 8 3 5 7 4 9 3 4 2 3 6 3 8 8 18 25
8 18 19 18 17 15 13 11 10 9 6 7 9 11 11 12 13 13 14 14 14 15 13 12 12 11 5 6 5 6 8 3 5 5 5 6 3 3 4 3 5 2 12 16 13 6 16
16 19 20 18 18 16 14 12 10 9 7 6 8 10 12 13 13 14 14 14 14 14 11 10 10 3 8 2 4 7 7 3 3 2 3 2 3 3 2 2 1 3 5 13 23 16 6
12 17 22 19 18 16 14 12 11 9 7 5 7 10 11 13 13 15 15 14 13 10 9 7 7 3 4 2 3 5 8 5 6 4 2 2 3 5 3 1 5 4 4 4 11 21 11
16 14 22 21 19 18 15 13 11 10 7 5 6 9 12 13 14 14 16 14 9 8 6 6 4 4 3 6 5 6 4 4 6 3 6 4 5 4 3 4 3 7 5 7 3 21 1
18 6 24 22 20 18 16 13 12 10 8 5 5 8 11 13 14 14 16 6 5 4 3 1 2 5 6 3 5 6 4 3 4 1 4 7 5 4 4 3 3 1 6 7 5 10 25
13 9 23 23 21 19 17 14 13 11 8 6 5 8 10 12 14 14 8 2 4 5 9 4 2 4 1 5 3 5 4 2 4 8 4 5 7 6 4 4 4 6 11 10 10 9 16
10 5 23 24 23 20 18 15 14 11 8 6 5 8 10 11 13 11 2 5 3 1 7 2 1 2 2 1 4 14 5 5 6 5 1 6 7 4 5 6 7 5 13 10 10 14 13
6 8 24 25 24 22 19 16 14 11 8 6 4 7 10 10 11 3 3 4 3 2 6 3 1 2 3 3 3 8 6 2 6 7 6 5 3 3 3 5 6 3 5 5 7 7 13
6 5 9 25 23 22 19 17 14 12 8 5 3 7 8 11 3 0 3 4 3 1 6 3 2 2 2 1 5 2 5 2 5 4 3 5 2 3 4 4 1 3 0 5 17 7 5
7 5 10 24 24 22 19 17 15 12 9 5 2 5 5 7 4 3 0 3 1 3 4 1 1 2 3 6 2 8 4 6 4 4 1 1 2 4 3 1 1 3 0 3 8 5 2
12 2 5 19 23 22 18 16 15 12 10 6 0 4 1 4 3 2 4 1 2 5 3 2 1 2 4 7 4 5 8 8 2 4 6 2 2 3 0 2 3 2 4 5 3 3 5
7 3 12 14 23 21 19 16 15 12 11 7 5 6 6 1 2 5 2 3 5 5 1 3 3 3 4 4 5 6 6 9 4 2 4 4 3 3 3 0 1 4 3 0 2 3 2
14 10 10 13 22 20 20 17 14 13 12 7 6 3 4 2 1 1 2 4 3 4 3 2 4 4 4 2 3 5 3 4 6 4 3 1 3 5 7 3 1 4 2 1 3 2 2
7 12 8 15 23 21 21 18 14 13 12 10 7 2 3 3 3 2 5 4 7 6 6 8 4 4 2 1 4 4 4 2 2 3 2 2 1 3 4 3 3 1 3 1 4 1 2
16 8 13 19 23 23 20 18 16 13 13 10 4 3 2 5 2 4 6 4 2 3 5 4 5 2 4 2 3 3 1 0 1 2 2 3 1 2 3 0 7 2 4 1 2 2 4
16 14 10 19 22 23 19 19 16 13 12 9 4 4 1 5 2 6 4 5 3 1 1 3 5 5 4 4 3 2 3 0 0 1 2 2 1 1 1 5 0 2 1 4 2 1 3
12 13 14 14 21 22 20 17 15 15 11 7 4 4 2 1 5 1 4 3 3 2 3 3 5 5 4 3 3 2 4 1 3 0 2 1 3 1 2 2 2 0 1 2 2 4 0
13 19 19 17 21 21 19 18 16 15 10 5 5 2 2 3 5 1 2 2 2 3 2 2 4 3 2 4 3 2 3 2 2 2 3 4 1 1 2 2 1 1 1 3 4 2 7
17 21 19 18 21 21 20 18 15 12 5 6 4 2 5 5 2 7 6 3 4 4 3 4 6 5 5 3 5 5 3 1 2 2 6 3 2 3 3 1 2 3 4 3 3 4 3
19 21 17 15 19 19 18 16 15 12 8 6 3 1 1 4 3 4 3 5 5 4 2 3 4 3 6 4 3 3 2 2 2 2 2 2 3 3 3 3 3 4 9 10 11 7 8
21 23 22 15 16 21 19 18 15 12 9 6 6 6 3 2 2 6 3 3 5 3 3 1 6 4 4 6 6 8 7 5 4 2 2 1 3 1 2 3 2 8 15 11 11 11 14
23 22 18 14 15 18 16 16 14 10 5 3 1 3 4 3 1 4 6 6 5 8 3 3 7 6 5 4 4 3 3 4 5 7 5 3 4 2 3 4 6 8 5 6 4 5 6
24 25 20 11 13 18 16 14 13 8 5 4 3 4 5 2 2 4 6 4 5 2 8 2 3 5 3 8 8 6 10 9 8 6 2 6 4 2 2 4 2 2 0 5 5 3 5
25 20 19 12 11 15 14 13 12 10 7 4 2 3 4 4 2 4 7 6 6 5 5 4 4 2 7 4 4 4 4 2 3 6 3 1 5 3 2 2 7 2 4 5 5 4 10
25 19 17 11 11 13 14 14 13 9 10 6 3 1 4 8 2 3 5 3 5 4 3 3 3 2 4 4 3 5 5 3 3 2 3 4 4 2 3 2 5 1 4 4 3 4 9
25 18 16 14 11 12 12 12 14 10 8 6 3 2 5 6 2 2 3 5 5 4 4 4 5 2 2 2 3 3 3 2 6 7 5 4 2 6 3 4 9 4 5 3 2 1 9
23 19 17 14 10 9 10 11 11 13 8 5 2 3 4 5 2 4 4 3 3 2 5 5 5 0 2 3 3 4 3 5 3 5 6 8 7 4 4 5 9 7 5 6 1 2 7
20 18 16 15 14 13 8 10 10 11 9 6 5 2 3 8 4 1 3 2 1 1 5 0 1 3 4 5 1 4 3 2 4 3 1 5 5 5 10 6 1 4 1 2 3 5 5
Wind_Direction
222 198 189 183 183 191 187 203 202 205 247 283 301 311 317 322 322 322 320 320 319 322 327 326 329 332 44 51 44 328 328 338 30 20 40 50 48 69 71 60 88 64 28 58 48 85 74
218 202 186 184 180 187 189 189 214 197 231 271 297 307 314 317 319 320 320 319 319 321 326 325 327 317 75 80 309 349 336 356 42 33 17 32 77 84 90 62 61 131 100 63 25 57 66
213 204 186 183 179 183 188 183 207 209 212 264 294 307 314 316 316 317 315 314 314 317 322 324 331 23 64 126 302 338 9 341 20 38 38 30 104 71 130 104 28 115 109 52 14 348 67
200 206 182 181 179 175 184 182 193 216 207 246 294 307 313 313 314 314 311 311 311 308 316 320 320 60 91 284 303 15 349 354 8 29 51 20 79 91 36 84 40 56 66 69 16 355 46
196 211 181 180 179 174 180 182 187 206 213 233 286 306 315 316 314 313 310 306 294 304 309 300 25 77 92 323 15 330 18 332 327 35 39 61 64 61 37 68 46 27 70 54 42 11 7
201 217 178 179 178 177 176 181 181 199 216 229 280 305 316 316 314 313 310 275 294 335 332 352 54 56 6 323 307 323 322 349 41 25 46 38 50 63 46 57 90 332 105 65 61 36 77
194 221 183 177 176 179 175 178 180 192 215 229 275 306 315 316 317 320 340 7 32 5 37 73 136 109 295 294 298 341 356 3 28 54 71 21 82 75 57 57 105 102 94 105 132 135 68
184 279 186 177 174 178 175 176 180 186 205 227 273 311 314 318 318 319 39 82 97 151 78 14 339 347 270 329 20 351 10 69 46 73 8 70 83 109 83 79 92 102 106 90 68 105 104
191 266 189 178 174 174 172 178 178 177 198 219 286 314 316 320 316 33 71 103 333 284 88 3 9 60 293 56 62 339 13 66 67 61 52 100 110 138 100 62 103 50 95 163 151 100 116
183 224 210 174 173 169 172 175 172 170 190 207 296 315 320 320 43 229 50 345 352 356 87 314 321 353 353 141 50 346 14 50 44 93 73 74 31 107 89 69 16 138 129 136 145 144 185
183 238 354 171 167 166 172 171 166 166 172 196 285 316 329 43 141 75 57 320 310 52 97 193 17 292 18 82 269 5 3 25 66 48 153 98 59 69 78 52 296 99 259 147 183 199 191
173 95 231 186 167 165 169 167 158 164 162 178 33 320 147 31 55 3 314 354 60 56 171 109 46 45 60 19 31 322 24 34 77 74 37 57 353 44 41 122 59 113 104 62 81 146 228
147 233 224 243 165 166 162 161 155 159 158 165 120 56 71 84 134 323 328 57 67 120 280 168 120 96 80 29 45 32 39 32 36 79 33 7 12 338 24 165 115 62 69 165 197 205 264
175 202 231 231 164 163 159 155 154 159 153 148 126 111 29 57 329 274 65 65 143 149 179 155 117 88 87 25 41 29 73 55 42 40 84 111 176 1 336 56 37 38 30 102 285 253 319
205 208 240 224 165 162 154 156 157 159 152 146 115 54 67 349 350 102 78 83 185 190 156 137 83 92 83 81 113 87 55 100 5 357 123 164 118 330 46 358 350 96 60 67 105 55 278
212 217 261 194 161 156 158 154 155 165 145 147 103 93 34 315 339 70 76 199 161 195 123 109 116 128 131 138 95 85 139 197 159 7 284 167 97 8 322 197 55 33 120 179 59 264 267
195 208 205 185 160 153 160 150 155 160 144 145 70 93 276 323 89 54 152 215 202 349 69 104 136 113 115 139 125 135 137 279 256 62 60 102 68 129 309 20 28 94 122 64 96 239 263
211 185 167 198 160 155 151 144 164 144 145 78 113 94 306 300 67 30 154 181 163 138 56 86 91 96 124 143 118 128 180 70 344 128 66 32 113 11 51 65 244 350 141 159 210 191 25
212 166 170 181 164 154 150 158 156 158 154 126 90 115 307 68 133 156 249 94 70 127 111 110 102 88 94 120 114 122 150 39 43 89 160 178 72 305 171 173 127 58 76 110 101 100 207
201 162 156 184 165 153 151 156 151 162 145 87 104 97 353 47 15 141 143 135 113 22 68 76 108 78 97 94 25 151 137 51 16 95 82 89 134 230 233 127 120 199 221 199 175 194 208
173 154 147 171 161 148 149 150 152 146 154 90 28 141 207 175 254 163 132 135 130 133 58 50 58 123 136 110 88 137 124 125 42 114 74 126 213 207 248 233 207 238 239 210 219 231 239
136 134 158 175 168 149 150 152 142 147 133 80 128 133 48 74 159 124 56 165 137 128 112 148 126 149 133 146 179 186 152 195 191 159 146 37 172 146 250 94 174 255 256 246 241 246 252
123 123 129 149 155 140 139 141 141 143 88 111 162 75 98 313 94 102 166 165 172 129 40 59 147 119 133 166 116 49 74 100 130 152 151 142 141 118 257 344 299 264 248 193 191 215 223
116 118 117 119 142 137 137 144 143 119 116 116 180 107 106 173 150 160 138 114 144 127 133 66 77 106 142 123 113 69 61 77 78 57 91 141 112 60 292 338 257 65 249 227 210 213 171
98 98 98 102 123 121 126 132 129 105 124 95 114 127 129 109 110 72 112 108 91 59 76 87 20 349 146 70 77 64 12 80 63 35 36 47 127 102 284 246 309 197 178 168 196 239 192
96 100 96 91 88 109 121 136 145 123 115 92 83 270 99 120 221 84 115 137 130 102 64 62 38 34 59 83 98 145 190 184 186 125 54 75 71 131 135 236 256 107 178 167 148 270 180
99 101 96 84 68 77 96 124 136 128 104 107 82 356 85 103 20 25 123 160 118 99 100 133 160 144 28 112 114 154 202 172 177 184 170 148 144 203 159 253 278 202 162 163 237 59 165
118 114 104 96 84 77 86 113 126 117 96 75 102 4 101 95 41 23 28 104 93 130 142 163 99 305 76 120 142 182 171 202 182 162 176 175 159 188 168 214 270 153 123 203 85 80 147
93 89 87 97 96 89 101 108 115 109 92 100 83 356 23 77 115 71 102 93 17 343 125 64 133 154 166 100 148 123 149 162 172 211 142 204 198 184 202 218 93 200 27 95 143 148 152